QPF
0.02 0.02 0.01 0.01 0.01 0.00 0.00 0.00 0.00 0.00 0.00 0.00 0.00 0.00 0.00 0.00 0.00 0.00 0.00 0.00 0.00 0.00 0.00 0.00 0.00 0.00 0.00 0.00 0.00 0.00 0.01 0.01 0.02 0.03 0.04 0.05 0.07 0.08 0.08 0.10 0.13 0.14 0.12
0.01 0.01 0.00 0.00 0.00 0.00 0.00 0.00 0.00 0.00 0.00 0.00 0.00 0.00 0.00 0.00 0.00 0.00 0.00 0.00 0.00 0.00 0.00 0.00 0.00 0.00 0.00 0.00 0.00 0.00 0.00 0.01 0.02 0.04 0.05 0.05 0.04 0.05 0.06 0.09 0.10 0.10 0.12
0.01 0.00 0.00 0.00 0.00 0.00 0.00 0.00 0.00 0.00 0.00 0.00 0.00 0.00 0.00 0.00 0.00 0.00 0.00 0.00 0.00 0.00 0.00 0.00 0.00 0.00 0.00 0.00 0.00 0.00 0.01 0.01 0.02 0.03 0.05 0.06 0.07 0.04 0.03 0.05 0.08 0.10 0.10
0.00 0.00 0.00 0.00 0.00 0.00 0.00 0.00 0.00 0.00 0.00 0.00 0.00 0.00 0.00 0.00 0.00 0.00 0.00 0.00 0.00 0.00 0.00 0.00 0.00 0.00 0.00 0.00 0.00 0.00 0.01 0.01 0.01 0.02 0.02 0.04 0.07 0.08 0.05 0.04 0.05 0.07 0.09
0.00 0.00 0.00 0.00 0.00 0.00 0.00 0.00 0.00 0.00 0.00 0.00 0.00 0.00 0.00 0.00 0.00 0.00 0.00 0.00 0.00 0.00 0.00 0.00 0.00 0.00 0.00 0.00 0.00 0.00 0.01 0.01 0.01 0.01 0.01 0.02 0.03 0.05 0.06 0.05 0.04 0.05 0.06
0.00 0.00 0.00 0.00 0.00 0.00 0.00 0.00 0.00 0.00 0.00 0.00 0.00 0.00 0.00 0.00 0.00 0.00 0.00 0.00 0.00 0.00 0.00 0.00 0.00 0.00 0.00 0.00 0.00 0.00 0.00 0.01 0.01 0.01 0.00 0.01 0.02 0.04 0.05 0.04 0.04 0.04 0.04
0.00 0.00 0.00 0.00 0.00 0.00 0.00 0.00 0.00 0.00 0.00 0.00 0.00 0.00 0.00 0.00 0.00 0.00 0.00 0.00 0.00 0.00 0.00 0.00 0.00 0.00 0.00 0.00 0.00 0.00 0.00 0.00 0.00 0.00 0.00 0.00 0.01 0.02 0.03 0.03 0.03 0.02 0.03
0.00 0.00 0.00 0.00 0.00 0.00 0.00 0.00 0.00 0.00 0.00 0.00 0.00 0.00 0.00 0.00 0.00 0.00 0.00 0.00 0.00 0.00 0.00 0.00 0.00 0.00 0.00 0.00 0.00 0.00 0.00 0.00 0.00 0.00 0.00 0.00 0.00 0.01 0.01 0.03 0.03 0.03 0.02
0.00 0.00 0.00 0.00 0.00 0.00 0.00 0.00 0.00 0.00 0.00 0.00 0.00 0.00 0.00 0.00 0.00 0.00 0.00 0.00 0.00 0.00 0.00 0.00 0.00 0.00 0.00 0.00 0.00 0.00 0.00 0.00 0.00 0.00 0.00 0.00 0.00 0.00 0.00 0.01 0.02 0.03 0.03
0.00 0.00 0.00 0.00 0.00 0.00 0.00 0.00 0.00 0.00 0.00 0.00 0.00 0.00 0.00 0.00 0.00 0.00 0.00 0.00 0.00 0.00 0.00 0.00 0.00 0.00 0.00 0.00 0.00 0.00 0.00 0.00 0.00 0.00 0.00 0.00 0.00 0.00 0.00 0.00 0.01 0.02 0.03
0.00 0.00 0.00 0.00 0.00 0.00 0.00 0.00 0.00 0.00 0.00 0.00 0.00 0.00 0.00 0.00 0.00 0.00 0.00 0.00 0.00 0.00 0.00 0.00 0.00 0.00 0.00 0.00 0.00 0.00 0.00 0.00 0.00 0.00 0.00 0.00 0.00 0.00 0.00 0.00 0.00 0.01 0.02
0.00 0.00 0.00 0.00 0.00 0.00 0.00 0.00 0.00 0.00 0.00 0.00 0.00 0.00 0.00 0.00 0.00 0.00 0.00 0.00 0.00 0.00 0.00 0.00 0.00 0.00 0.00 0.00 0.00 0.00 0.00 0.00 0.00 0.00 0.00 0.00 0.00 0.00 0.00 0.00 0.00 0.00 0.01
0.00 0.00 0.00 0.00 0.00 0.00 0.00 0.00 0.00 0.00 0.00 0.00 0.00 0.00 0.00 0.00 0.00 0.00 0.00 0.00 0.00 0.00 0.00 0.00 0.00 0.00 0.00 0.00 0.00 0.00 0.00 0.00 0.00 0.00 0.00 0.00 0.00 0.00 0.00 0.00 0.00 0.00 0.01
0.00 0.00 0.00 0.00 0.00 0.00 0.00 0.00 0.00 0.00 0.00 0.00 0.00 0.00 0.00 0.00 0.00 0.00 0.00 0.00 0.00 0.00 0.00 0.00 0.00 0.00 0.00 0.00 0.00 0.00 0.00 0.00 0.00 0.00 0.00 0.00 0.00 0.00 0.00 0.00 0.00 0.00 0.01
0.00 0.00 0.00 0.00 0.00 0.00 0.00 0.00 0.00 0.00 0.00 0.00 0.00 0.00 0.00 0.00 0.00 0.00 0.00 0.00 0.00 0.00 0.00 0.00 0.00 0.00 0.00 0.00 0.00 0.00 0.00 0.00 0.00 0.00 0.00 0.00 0.00 0.00 0.00 0.00 0.00 0.00 0.00
0.00 0.00 0.00 0.00 0.00 0.00 0.00 0.00 0.00 0.00 0.00 0.00 0.00 0.00 0.00 0.00 0.00 0.00 0.00 0.00 0.00 0.00 0.00 0.00 0.00 0.00 0.00 0.00 0.00 0.00 0.00 0.00 0.00 0.00 0.00 0.00 0.00 0.00 0.00 0.00 0.00 0.00 0.00
0.00 0.00 0.00 0.00 0.00 0.00 0.00 0.00 0.00 0.00 0.00 0.00 0.00 0.00 0.00 0.00 0.00 0.00 0.00 0.00 0.00 0.00 0.00 0.00 0.00 0.00 0.00 0.00 0.00 0.00 0.00 0.00 0.00 0.00 0.00 0.00 0.00 0.00 0.00 0.00 0.00 0.00 0.00
0.00 0.00 0.00 0.00 0.00 0.00 0.00 0.00 0.00 0.00 0.00 0.00 0.00 0.00 0.00 0.00 0.00 0.00 0.00 0.00 0.00 0.00 0.00 0.00 0.00 0.00 0.00 0.00 0.00 0.00 0.00 0.00 0.00 0.00 0.00 0.00 0.00 0.00 0.00 0.00 0.00 0.00 0.01
0.00 0.00 0.00 0.00 0.00 0.00 0.00 0.00 0.00 0.00 0.00 0.00 0.00 0.00 0.00 0.00 0.00 0.00 0.00 0.00 0.00 0.00 0.00 0.00 0.00 0.00 0.00 0.00 0.00 0.00 0.00 0.00 0.00 0.00 0.00 0.00 0.00 0.00 0.00 0.00 0.01 0.01 0.01
0.00 0.00 0.00 0.00 0.00 0.00 0.00 0.00 0.00 0.00 0.00 0.00 0.00 0.00 0.00 0.00 0.00 0.00 0.00 0.00 0.00 0.00 0.00 0.00 0.00 0.00 0.00 0.00 0.00 0.00 0.00 0.00 0.00 0.00 0.00 0.00 0.00 0.01 0.01 0.01 0.01 0.01 0.01
0.00 0.00 0.00 0.00 0.00 0.00 0.00 0.00 0.00 0.00 0.00 0.00 0.00 0.00 0.00 0.00 0.00 0.00 0.00 0.00 0.00 0.00 0.00 0.00 0.00 0.00 0.00 0.00 0.00 0.00 0.00 0.00 0.00 0.00 0.00 0.01 0.01 0.01 0.02 0.02 0.02 0.02 0.03
0.00 0.00 0.00 0.00 0.00 0.00 0.00 0.00 0.00 0.00 0.00 0.00 0.00 0.00 0.00 0.00 0.00 0.00 0.00 0.00 0.00 0.00 0.00 0.00 0.00 0.00 0.00 0.01 0.00 0.00 0.00 0.00 0.00 0.01 0.01 0.02 0.02 0.03 0.03 0.02 0.03 0.04 0.04
0.00 0.00 0.00 0.00 0.00 0.00 0.00 0.00 0.00 0.00 0.00 0.00 0.00 0.00 0.00 0.00 0.00 0.00 0.00 0.00 0.00 0.00 0.00 0.00 0.00 0.01 0.00 0.00 0.00 0.01 0.01 0.01 0.01 0.01 0.02 0.03 0.03 0.04 0.04 0.04 0.03 0.04 0.05
0.00 0.00 0.00 0.00 0.00 0.00 0.00 0.00 0.00 0.00 0.00 0.00 0.00 0.00 0.00 0.00 0.00 0.00 0.00 0.00 0.00 0.00 0.00 0.00 0.00 0.00 0.00 0.00 0.01 0.00 0.01 0.01 0.01 0.01 0.02 0.03 0.04 0.05 0.05 0.05 0.05 0.05 0.06
0.00 0.00 0.00 0.00 0.00 0.00 0.00 0.00 0.00 0.00 0.00 0.00 0.00 0.00 0.00 0.00 0.00 0.00 0.00 0.00 0.00 0.00 0.00 0.00 0.00 0.00 0.00 0.00 0.00 0.00 0.00 0.01 0.01 0.02 0.03 0.03 0.03 0.04 0.05 0.06 0.06 0.05 0.06
0.00 0.00 0.00 0.00 0.00 0.00 0.00 0.00 0.00 0.00 0.00 0.00 0.00 0.00 0.00 0.00 0.00 0.00 0.00 0.00 0.00 0.00 0.00 0.00 0.00 0.00 0.00 0.00 0.00 0.00 0.01 0.01 0.01 0.01 0.02 0.03 0.03 0.04 0.05 0.06 0.06 0.06 0.07
MSLP
1016.01 1016.06 1016.08 1016.05 1015.97 1015.85 1015.73 1015.66 1015.66 1015.76 1015.94 1016.17 1016.39 1016.56 1016.63 1016.55 1016.34 1016.02 1015.63 1015.24 1014.91 1014.67 1014.55 1014.55 1014.64 1014.78 1014.91 1014.99 1014.99 1014.88 1014.67 1014.38 1014.04 1013.67 1013.30 1012.95 1012.63 1012.34 1012.08 1011.86 1011.68 1011.58 1011.56
1015.80 1015.88 1015.94 1015.93 1015.86 1015.75 1015.66 1015.62 1015.68 1015.85 1016.10 1016.40 1016.69 1016.90 1016.97 1016.88 1016.63 1016.25 1015.81 1015.38 1015.01 1014.75 1014.62 1014.62 1014.70 1014.81 1014.91 1014.94 1014.89 1014.74 1014.50 1014.20 1013.87 1013.53 1013.20 1012.89 1012.59 1012.30 1012.01 1011.73 1011.47 1011.27 1011.15
1015.39 1015.53 1015.64 1015.68 1015.65 1015.59 1015.53 1015.54 1015.65 1015.88 1016.19 1016.55 1016.88 1017.11 1017.20 1017.10 1016.82 1016.42 1015.96 1015.49 1015.10 1014.83 1014.69 1014.66 1014.71 1014.79 1014.84 1014.83 1014.74 1014.56 1014.32 1014.04 1013.76 1013.48 1013.22 1012.97 1012.71 1012.43 1012.12 1011.79 1011.45 1011.14 1010.90
1014.86 1015.07 1015.25 1015.36 1015.39 1015.38 1015.37 1015.42 1015.57 1015.83 1016.18 1016.57 1016.92 1017.17 1017.27 1017.17 1016.90 1016.50 1016.03 1015.57 1015.18 1014.90 1014.74 1014.69 1014.70 1014.73 1014.74 1014.68 1014.56 1014.38 1014.17 1013.94 1013.72 1013.53 1013.36 1013.18 1012.98 1012.72 1012.39 1012.00 1011.58 1011.16 1010.80
1014.32 1014.59 1014.84 1015.02 1015.13 1015.17 1015.20 1015.28 1015.44 1015.71 1016.06 1016.45 1016.80 1017.06 1017.17 1017.10 1016.85 1016.48 1016.04 1015.60 1015.22 1014.94 1014.77 1014.69 1014.66 1014.65 1014.61 1014.53 1014.40 1014.23 1014.05 1013.89 1013.75 1013.65 1013.57 1013.47 1013.32 1013.08 1012.74 1012.31 1011.81 1011.29 1010.82
1013.84 1014.17 1014.49 1014.75 1014.91 1015.00 1015.06 1015.14 1015.29 1015.53 1015.85 1016.20 1016.54 1016.80 1016.91 1016.87 1016.67 1016.35 1015.96 1015.57 1015.22 1014.96 1014.78 1014.68 1014.61 1014.56 1014.49 1014.38 1014.24 1014.09 1013.96 1013.86 1013.81 1013.80 1013.79 1013.76 1013.65 1013.44 1013.09 1012.62 1012.07 1011.48 1010.90
1013.50 1013.88 1014.26 1014.57 1014.78 1014.90 1014.96 1015.02 1015.13 1015.32 1015.58 1015.88 1016.17 1016.41 1016.53 1016.52 1016.38 1016.12 1015.80 1015.47 1015.17 1014.93 1014.76 1014.63 1014.54 1014.45 1014.35 1014.22 1014.09 1013.96 1013.87 1013.82 1013.84 1013.89 1013.94 1013.95 1013.88 1013.69 1013.35 1012.87 1012.29 1011.65 1011.02
1013.33 1013.74 1014.17 1014.52 1014.76 1014.89 1014.94 1014.96 1015.01 1015.12 1015.29 1015.52 1015.75 1015.95 1016.07 1016.09 1015.99 1015.81 1015.57 1015.30 1015.06 1014.85 1014.68 1014.55 1014.43 1014.31 1014.18 1014.04 1013.90 1013.78 1013.72 1013.71 1013.76 1013.85 1013.93 1013.98 1013.93 1013.76 1013.44 1012.98 1012.41 1011.78 1011.14
1013.32 1013.76 1014.22 1014.59 1014.85 1014.97 1014.99 1014.96 1014.93 1014.95 1015.03 1015.16 1015.32 1015.47 1015.57 1015.60 1015.55 1015.43 1015.25 1015.05 1014.86 1014.68 1014.52 1014.38 1014.24 1014.10 1013.95 1013.79 1013.64 1013.53 1013.47 1013.47 1013.53 1013.63 1013.73 1013.78 1013.76 1013.62 1013.33 1012.92 1012.41 1011.83 1011.23
1013.42 1013.89 1014.36 1014.74 1014.99 1015.10 1015.08 1015.00 1014.89 1014.82 1014.80 1014.84 1014.91 1015.00 1015.07 1015.10 1015.07 1014.99 1014.86 1014.71 1014.56 1014.41 1014.26 1014.11 1013.96 1013.79 1013.62 1013.44 1013.28 1013.15 1013.08 1013.07 1013.12 1013.21 1013.30 1013.36 1013.35 1013.25 1013.03 1012.70 1012.28 1011.79 1011.28
1013.58 1014.06 1014.53 1014.91 1015.14 1015.22 1015.17 1015.04 1014.87 1014.72 1014.61 1014.56 1014.55 1014.58 1014.60 1014.60 1014.57 1014.51 1014.41 1014.29 1014.16 1014.02 1013.88 1013.72 1013.56 1013.37 1013.18 1012.98 1012.80 1012.65 1012.56 1012.52 1012.55 1012.61 1012.69 1012.75 1012.76 1012.70 1012.56 1012.33 1012.02 1011.66 1011.28
1013.74 1014.21 1014.66 1015.02 1015.23 1015.28 1015.20 1015.03 1014.82 1014.61 1014.43 1014.31 1014.23 1014.19 1014.16 1014.12 1014.07 1014.00 1013.90 1013.79 1013.67 1013.53 1013.39 1013.23 1013.05 1012.85 1012.64 1012.42 1012.22 1012.05 1011.93 1011.87 1011.86 1011.89 1011.95 1012.01 1012.05 1012.04 1011.98 1011.86 1011.68 1011.46 1011.20
1013.83 1014.28 1014.70 1015.01 1015.18 1015.21 1015.12 1014.93 1014.69 1014.45 1014.24 1014.06 1013.93 1013.83 1013.75 1013.67 1013.58 1013.49 1013.37 1013.25 1013.12 1012.97 1012.82 1012.65 1012.45 1012.24 1012.02 1011.79 1011.58 1011.39 1011.25 1011.16 1011.12 1011.13 1011.17 1011.24 1011.30 1011.34 1011.35 1011.33 1011.27 1011.17 1011.04
1013.84 1014.24 1014.59 1014.85 1014.98 1014.98 1014.87 1014.69 1014.45 1014.21 1013.99 1013.79 1013.63 1013.49 1013.36 1013.24 1013.12 1012.99 1012.85 1012.70 1012.55 1012.38 1012.21 1012.03 1011.82 1011.60 1011.37 1011.13 1010.91 1010.71 1010.55 1010.44 1010.38 1010.38 1010.41 1010.48 1010.56 1010.65 1010.73 1010.79 1010.82 1010.82 1010.78
1013.73 1014.06 1014.33 1014.52 1014.60 1014.58 1014.47 1014.30 1014.09 1013.87 1013.67 1013.48 1013.31 1013.15 1013.00 1012.85 1012.69 1012.53 1012.35 1012.18 1011.99 1011.81 1011.61 1011.40 1011.19 1010.96 1010.72 1010.48 1010.25 1010.05 1009.88 1009.76 1009.69 1009.68 1009.71 1009.78 1009.88 1009.99 1010.11 1010.22 1010.32 1010.39 1010.42
1013.52 1013.75 1013.92 1014.03 1014.06 1014.02 1013.92 1013.77 1013.61 1013.44 1013.28 1013.12 1012.97 1012.82 1012.66 1012.49 1012.31 1012.11 1011.91 1011.69 1011.48 1011.26 1011.04 1010.81 1010.58 1010.33 1010.09 1009.85 1009.62 1009.41 1009.25 1009.13 1009.05 1009.04 1009.06 1009.13 1009.24 1009.36 1009.50 1009.64 1009.76 1009.86 1009.92
1013.18 1013.31 1013.40 1013.43 1013.42 1013.36 1013.27 1013.17 1013.06 1012.95 1012.85 1012.74 1012.62 1012.49 1012.33 1012.16 1011.96 1011.74 1011.50 1011.26 1011.01 1010.76 1010.51 1010.25 1010.00 1009.74 1009.48 1009.24 1009.01 1008.81 1008.64 1008.52 1008.45 1008.43 1008.45 1008.51 1008.61 1008.73 1008.87 1009.00 1009.13 1009.23 1009.31
1012.74 1012.79 1012.80 1012.77 1012.73 1012.67 1012.60 1012.54 1012.49 1012.44 1012.40 1012.34 1012.26 1012.16 1012.02 1011.84 1011.63 1011.39 1011.13 1010.85 1010.57 1010.29 1010.00 1009.72 1009.43 1009.16 1008.89 1008.64 1008.41 1008.21 1008.04 1007.92 1007.85 1007.82 1007.83 1007.88 1007.96 1008.06 1008.18 1008.30 1008.41 1008.51 1008.58
1012.20 1012.19 1012.16 1012.11 1012.06 1012.01 1011.98 1011.96 1011.97 1011.97 1011.98 1011.96 1011.92 1011.83 1011.70 1011.52 1011.30 1011.04 1010.75 1010.44 1010.13 1009.80 1009.48 1009.17 1008.86 1008.56 1008.28 1008.02 1007.79 1007.59 1007.42 1007.30 1007.22 1007.18 1007.17 1007.20 1007.26 1007.33 1007.43 1007.52 1007.62 1007.70 1007.77
1011.57 1011.56 1011.53 1011.49 1011.46 1011.44 1011.45 1011.48 1011.52 1011.57 1011.61 1011.61 1011.58 1011.50 1011.36 1011.17 1010.93 1010.64 1010.33 1009.99 1009.64 1009.28 1008.93 1008.58 1008.25 1007.94 1007.64 1007.38 1007.14 1006.94 1006.78 1006.65 1006.56 1006.50 1006.48 1006.48 1006.50 1006.55 1006.61 1006.68 1006.76 1006.84 1006.91
1010.88 1010.91 1010.92 1010.93 1010.95 1010.99 1011.04 1011.11 1011.19 1011.25 1011.30 1011.30 1011.26 1011.16 1011.00 1010.78 1010.51 1010.19 1009.84 1009.46 1009.08 1008.69 1008.30 1007.94 1007.59 1007.27 1006.97 1006.71 1006.48 1006.28 1006.12 1005.99 1005.88 1005.81 1005.75 1005.72 1005.72 1005.73 1005.76 1005.81 1005.88 1005.96 1006.05
1010.15 1010.26 1010.36 1010.45 1010.54 1010.64 1010.74 1010.84 1010.93 1011.00 1011.03 1011.01 1010.94 1010.80 1010.60 1010.34 1010.02 1009.66 1009.27 1008.86 1008.44 1008.02 1007.62 1007.24 1006.88 1006.56 1006.28 1006.03 1005.82 1005.63 1005.47 1005.34 1005.23 1005.13 1005.05 1004.99 1004.94 1004.92 1004.92 1004.96 1005.02 1005.11 1005.21
1009.42 1009.64 1009.84 1010.03 1010.20 1010.37 1010.51 1010.64 1010.73 1010.78 1010.78 1010.73 1010.60 1010.41 1010.16 1009.84 1009.48 1009.07 1008.64 1008.19 1007.74 1007.31 1006.89 1006.51 1006.17 1005.86 1005.60 1005.38 1005.19 1005.02 1004.88 1004.75 1004.63 1004.52 1004.41 1004.31 1004.23 1004.17 1004.15 1004.16 1004.22 1004.31 1004.44
1008.73 1009.06 1009.36 1009.64 1009.89 1010.11 1010.30 1010.44 1010.53 1010.55 1010.52 1010.42 1010.24 1010.00 1009.69 1009.32 1008.91 1008.46 1007.99 1007.51 1007.04 1006.59 1006.17 1005.79 1005.47 1005.19 1004.96 1004.78 1004.62 1004.49 1004.37 1004.25 1004.12 1003.99 1003.85 1003.72 1003.60 1003.51 1003.46 1003.45 1003.50 1003.59 1003.73
1008.12 1008.52 1008.90 1009.25 1009.56 1009.83 1010.04 1010.18 1010.26 1010.27 1010.20 1010.06 1009.84 1009.56 1009.21 1008.80 1008.34 1007.86 1007.36 1006.85 1006.37 1005.91 1005.49 1005.13 1004.83 1004.59 1004.40 1004.25 1004.13 1004.03 1003.94 1003.83 1003.70 1003.56 1003.40 1003.24 1003.09 1002.96 1002.88 1002.84 1002.87 1002.96 1003.09
1007.60 1008.04 1008.45 1008.84 1009.18 1009.46 1009.68 1009.83 1009.90 1009.90 1009.81 1009.65 1009.41 1009.11 1008.73 1008.30 1007.83 1007.32 1006.80 1006.28 1005.78 1005.32 1004.91 1004.56 1004.28 1004.07 1003.91 1003.80 1003.72 1003.65 1003.57 1003.48 1003.35 1003.20 1003.02 1002.84 1002.66 1002.50 1002.38 1002.32 1002.32 1002.39 1002.51
Thickness
5722 5722 5721 5720 5718 5715 5713 5711 5708 5706 5703 5700 5697 5694 5692 5690 5689 5688 5687 5686 5684 5683 5682 5680 5679 5678 5677 5677 5677 5678 5680 5682 5685 5687 5690 5697 5701 5704 5707 5709 5711 5713 5714
5716 5718 5718 5716 5714 5712 5710 5707 5704 5701 5699 5695 5692 5688 5685 5682 5681 5680 5679 5678 5676 5675 5674 5673 5671 5670 5669 5669 5669 5669 5670 5672 5675 5677 5679 5683 5690 5697 5703 5705 5707 5709 5711
5715 5716 5715 5714 5713 5711 5708 5706 5701 5698 5695 5691 5686 5682 5678 5676 5673 5672 5670 5669 5668 5667 5666 5665 5664 5663 5662 5661 5660 5660 5661 5661 5664 5667 5669 5671 5675 5683 5693 5697 5701 5703 5705
5718 5716 5715 5714 5713 5711 5708 5704 5699 5695 5691 5687 5682 5677 5671 5667 5666 5664 5662 5661 5660 5659 5659 5657 5656 5655 5654 5653 5653 5653 5652 5653 5653 5657 5660 5662 5666 5669 5677 5686 5692 5695 5698
5719 5717 5717 5716 5714 5711 5707 5702 5697 5692 5688 5682 5677 5671 5666 5663 5660 5658 5655 5654 5653 5652 5651 5650 5649 5648 5647 5646 5645 5645 5645 5644 5645 5646 5649 5653 5657 5661 5664 5671 5679 5685 5691
5721 5719 5718 5716 5712 5709 5705 5699 5693 5688 5683 5678 5672 5667 5662 5658 5654 5652 5649 5648 5646 5645 5644 5643 5641 5640 5639 5638 5638 5637 5637 5636 5637 5638 5640 5642 5645 5649 5653 5659 5666 5673 5682
5721 5718 5716 5713 5709 5706 5701 5695 5689 5683 5678 5673 5668 5663 5658 5654 5650 5647 5644 5642 5639 5637 5636 5635 5633 5631 5630 5630 5629 5628 5628 5628 5628 5630 5631 5633 5636 5639 5643 5648 5654 5662 5672
5721 5719 5716 5712 5707 5703 5697 5690 5684 5679 5674 5669 5664 5660 5655 5651 5647 5644 5640 5637 5634 5632 5630 5628 5625 5623 5621 5620 5619 5618 5618 5619 5620 5621 5623 5624 5627 5630 5634 5638 5643 5650 5659
5721 5717 5713 5708 5704 5698 5692 5686 5680 5674 5670 5665 5661 5656 5653 5648 5644 5641 5637 5633 5630 5627 5625 5621 5618 5616 5613 5611 5610 5609 5608 5608 5609 5611 5613 5616 5618 5621 5626 5630 5634 5638 5645
5717 5714 5709 5704 5699 5693 5687 5681 5676 5671 5667 5662 5658 5654 5650 5646 5641 5637 5633 5629 5625 5622 5618 5615 5611 5608 5605 5603 5601 5599 5599 5599 5600 5601 5603 5606 5609 5612 5616 5621 5626 5630 5635
5713 5709 5704 5699 5693 5687 5682 5677 5672 5667 5663 5659 5655 5650 5646 5642 5637 5633 5629 5625 5620 5616 5612 5608 5604 5601 5598 5596 5593 5591 5590 5590 5591 5592 5594 5597 5599 5603 5607 5611 5617 5622 5627
5709 5703 5698 5692 5687 5682 5677 5673 5669 5665 5661 5657 5652 5647 5643 5638 5633 5628 5624 5619 5614 5610 5606 5602 5598 5594 5592 5589 5586 5584 5584 5583 5583 5584 5585 5587 5590 5594 5597 5601 5607 5613 5619
5703 5697 5691 5686 5682 5678 5674 5670 5667 5662 5659 5653 5648 5643 5638 5633 5628 5623 5619 5614 5609 5604 5600 5595 5591 5588 5585 5582 5580 5578 5577 5576 5576 5576 5577 5579 5581 5584 5587 5592 5597 5603 5610
5698 5692 5687 5683 5679 5675 5671 5668 5664 5660 5655 5650 5644 5638 5634 5628 5623 5618 5613 5608 5603 5598 5594 5589 5585 5582 5578 5575 5573 5572 5570 5569 5569 5568 5569 5570 5572 5575 5578 5582 5587 5593 5599
5696 5691 5686 5681 5677 5673 5669 5665 5661 5657 5651 5645 5640 5635 5630 5624 5619 5613 5608 5603 5597 5593 5588 5583 5579 5575 5571 5569 5567 5565 5564 5562 5561 5561 5561 5562 5563 5566 5568 5572 5577 5582 5588
5695 5691 5686 5681 5676 5672 5667 5663 5658 5653 5647 5641 5636 5631 5625 5619 5614 5609 5603 5597 5592 5587 5581 5577 5573 5569 5566 5564 5560 5558 5556 5555 5553 5553 5552 5552 5554 5557 5560 5564 5568 5572 5578
5694 5690 5686 5681 5676 5670 5665 5659 5655 5649 5643 5637 5632 5627 5621 5615 5610 5604 5598 5592 5586 5581 5575 5571 5566 5563 5559 5556 5553 5550 5548 5547 5545 5544 5543 5544 5546 5547 5549 5553 5558 5563 5569
5694 5690 5685 5679 5674 5668 5662 5656 5651 5644 5639 5633 5627 5622 5616 5610 5605 5598 5592 5587 5581 5575 5570 5565 5561 5557 5554 5550 5547 5543 5540 5538 5537 5535 5534 5533 5534 5535 5537 5540 5545 5551 5557
5696 5691 5686 5679 5672 5666 5660 5653 5647 5640 5634 5629 5623 5618 5612 5605 5599 5593 5587 5581 5575 5570 5565 5560 5556 5551 5549 5545 5540 5536 5532 5530 5529 5527 5526 5525 5525 5525 5525 5528 5533 5538 5545
5695 5689 5683 5675 5669 5663 5656 5648 5642 5636 5630 5626 5620 5614 5607 5600 5594 5588 5582 5576 5569 5564 5559 5555 5551 5546 5543 5539 5534 5529 5525 5523 5521 5519 5517 5516 5516 5516 5515 5517 5521 5527 5533
5694 5687 5679 5672 5667 5660 5651 5643 5638 5632 5628 5622 5615 5609 5602 5595 5589 5583 5577 5571 5565 5559 5555 5551 5547 5542 5538 5534 5529 5524 5519 5516 5514 5512 5511 5510 5508 5507 5506 5507 5511 5516 5519
5692 5684 5675 5669 5664 5656 5647 5640 5635 5631 5624 5617 5610 5604 5597 5590 5586 5578 5573 5567 5560 5555 5551 5546 5543 5539 5534 5529 5525 5520 5515 5510 5507 5506 5505 5504 5501 5499 5499 5499 5502 5504 5507
5689 5682 5673 5666 5659 5651 5643 5637 5633 5627 5619 5612 5605 5598 5591 5585 5579 5572 5567 5562 5557 5551 5547 5543 5539 5536 5532 5526 5521 5516 5511 5507 5503 5502 5500 5498 5496 5494 5493 5494 5495 5496 5500
5685 5678 5669 5661 5655 5649 5641 5635 5630 5622 5614 5606 5600 5592 5585 5580 5574 5568 5563 5558 5554 5549 5544 5541 5537 5533 5528 5524 5518 5513 5508 5504 5501 5498 5496 5493 5492 5490 5489 5489 5489 5491 5495
5683 5674 5665 5658 5653 5646 5639 5632 5625 5617 5608 5601 5594 5587 5580 5574 5569 5564 5559 5555 5552 5546 5541 5539 5534 5529 5527 5523 5516 5509 5505 5501 5497 5494 5493 5492 5491 5489 5488 5486 5486 5487 5490
5679 5669 5661 5654 5648 5641 5634 5628 5621 5612 5603 5596 5589 5581 5574 5569 5564 5560 5558 5555 5549 5545 5540 5534 5529 5527 5523 5518 5513 5508 5503 5498 5494 5491 5492 5492 5490 5489 5489 5488 5487 5487 5490